Regional Weather Roundup
Issued by NWS

Home | Current Version | Previous Version | Graphics & Text | Print | Product List | Glossary On
Versions: 1 2 3 4 5 6 7 8 9 10 11 12 13 14 15 16 17 18 19 20 21 22 23 24 25 26 27 28 29 30 31 32 33 34 35 36 37 38 39 40 41 42 43 44 45 46 47 48 49 50
000
ASUS43 KMPX 260501
RWRMN
WEATHER ROUNDUP FOR MINNESOTA
NATIONAL WEATHER SERVICE TWIN CITIES/CHANHASSEN MN
1200 AM CDT TUE JUL 26 2016


NOTE: "FAIR" INDICATES FEW OR NO CLOUDS BELOW 12,000 FEET WITH NO
SIGNIFICANT WEATHER AND/OR OBSTRUCTIONS TO VISIBILITY. N/A MEANS
CURRENT SKY AND/OR WEATHER CONDITIONS ARE NOT AVAILABLE.

MNZ060>063-068>070-260600-
   Twin Cities Metro

CITY           SKY/WX    TMP DP  RH WIND       PRES   REMARKS
TWIN CITIES    CLEAR     78  64  61 SW3       30.04R
ST PAUL        CLEAR     72  68  87 CALM      30.04R
CRYSTAL        CLEAR     71  64  78 CALM      30.02S
BLAINE         CLEAR     72  66  83 SW3       30.04R
LAKEVILLE      CLEAR     70  68  94 SW3       30.05S
EDEN PRAIRIE   CLEAR     73  66  78 SW3       30.04R
LAKEVILLE      CLEAR     70  68  94 SW3       30.05S
SOUTH ST PAUL  CLEAR     73  64  73 SW3       30.03S
LAKE ELMO      FAIR      68  64  88 CALM      30.05S
$$
MNZ001>005-007-008-013>017-022>024-027-028-260600-
   Northwest Minnesota

CITY           SKY/WX    TMP DP  RH WIND       PRES   REMARKS
BEMIDJI        PTCLDY    70  64  83 SE3       29.98S
HALLOCK        PTCLDY    72  66  83 E3        29.94S
ROSEAU         CLOUDY    66  61  82 N3        29.96S
WARROAD        CLOUDY    64  61  88 CALM      29.97S
THIEF RVR FALL CLOUDY    73  67  81 N7        29.96R
CROOKSTON      PTCLDY    73  68  83 NE3       29.94R
FOSSTON        PTCLDY    72  64  78 S6        29.95F
DETROIT LAKES  CLEAR     73  64  73 S7        29.99R
MOORHEAD       PTCLDY    73  66  78 S8        29.93S
PARK RAPIDS    PTCLDY    73  66  78 S8        29.99S
MAHNOMEN       MOCLDY    73  66  78 S7        29.95S
$$
MNZ006-009>011-018-025>026-260600-
   North Central Minnesota

CITY           SKY/WX    TMP DP  RH WIND       PRES   REMARKS
BAUDETTE       CLOUDY    64  63  96 CALM      29.96S
FLAG ISLAND    CLEAR     73  63  68 CALM      29.95R
INTL FALLS     CLOUDY    60  58  92 CALM      29.97R
WASKISH        CLOUDY    66  64  94 CALM      29.97S
BIG FORK       CLEAR     64  63  94 CALM      29.99S
LONGVILLE      CLEAR     64  63  94 CALM      29.99F
GRAND RAPIDS   CLEAR     70  64  81 S5        30.02S
CRANE LAKE     CLEAR     59  57  94 SE1       29.99S
ORR            CLEAR     66  59  77 CALM      29.96S
COOK           CLEAR     64  63  94 CALM      29.99F
WALKER         FAIR      73  65  78 S5        29.99R
$$
MNZ012-019>021-037-260600-
   Northeast Minnesota

CITY           SKY/WX    TMP DP  RH WIND       PRES   REMARKS
DULUTH         CLEAR     68  63  84 W7        30.01S
ELY            CLEAR     64  61  88 CALM      29.99S
HIBBING        CLEAR     60  60 100 CALM      30.00S
EVELETH        CLEAR     63  61  95 CALM      30.01S
DULUTH HARBOR  CLEAR     73  66  78 SW7       29.98S
TWO HARBORS    CLEAR     72  64  78 W3        29.97S
SILVER BAY     CLEAR     68  63  83 CALM      29.97S
GRAND MARAIS     N/A     56  54  93 CALM      29.94S
G MARAIS ARPRT CLEAR     59  54  82 W3        30.01S
$$
MNZ029>031-032-039>041-046>048-054>057-064-260600-
   West Central Minnesota

CITY           SKY/WX    TMP DP  RH WIND       PRES   REMARKS
FERGUS FALLS   CLEAR     72  64  78 S9        29.98S
WHEATON        CLEAR     75  66  73 S10       29.98S
MORRIS         CLEAR     70  64  83 S7        30.00R
ALEXANDRIA     PTCLDY    75  63  66 S10       30.03R
ELBOW LAKE     FAIR      70  64  81 S12       29.99S
WADENA         CLEAR     70  64  83 S5        29.99S
GLENWOOD       CLEAR     68  66  94 S8        30.03S
APPLETON       CLEAR     75  64  69 S7        30.00S
BENSON         CLEAR     70  64  83 SW7       30.02R
ORTONVILLE     CLEAR     72  63  73 CALM      30.00S
MADISON        CLEAR     70  66  88 S8        30.02S
WILLMAR        FAIR      73  66  78 S3        30.05S
$$
MNZ033>034-036-042>043-049>051-058-059-260600-
   Central Minnesota

CITY           SKY/WX    TMP DP  RH WIND       PRES   REMARKS
ST CLOUD       CLEAR     70  67  90 S5        30.03R
SAUK CENTRE    FAIR      68  65  92 S6        30.03S
PAYNESVILLE    CLEAR     71  66  85 S6        30.04S
AITKIN         CLEAR     68  63  83 CALM      30.00S
PINE RIVER     CLEAR     66  64  94 CALM      30.04R
BRAINERD       CLEAR     71  66  84 S7        30.01S
STAPLES        PTCLDY    70  64  83 S6        30.00S
LONG PRAIRIE   FAIR      68  64  88 SE5       30.03S
LITTLE FALLS   CLEAR     68  64  88 CALM      30.02S
LITCHFIELD     CLEAR     72  70  94 CALM      30.05S
BUFFALO        CLEAR     73  66  77 S3        30.05S
MAPLE LAKE     CLEAR     73  69  88 CALM      30.05S
HUTCHINSON     PTCLDY    72  69  90 S3        30.06S
$$
MNZ037-044-045-052-053-260600-
   East Central Minnesota

CITY           SKY/WX    TMP DP  RH WIND       PRES   REMARKS
PRINCETON      CLEAR     72  66  83 CALM      30.03S
MORA           CLEAR     64  63  94 CALM      30.04S
CAMBRIDGE      CLEAR     72  63  73 CALM      30.02S
RUSH CITY      CLEAR     66  64  93 CALM      30.03S
MOOSE LAKE     PTCLDY    64  63  94 CALM      30.00S
HINCKLEY       FAIR      66  66 100 CALM      30.02S
CLOQUET        CLEAR     72  61  68 SW5       30.01S
MCGREGOR       CLEAR     70  64  83 CALM      30.02S
$$
MNZ071>073-080-081-089-090-097-098-260600-
   Southwest Minnesota

CITY           SKY/WX    TMP DP  RH WIND       PRES   REMARKS
MONTEVIDEO     CLEAR     72  64  78 SW8       30.05R
GRANITE FALLS  CLEAR     70  67  90 S8        30.06R
CANBY          PTCLDY    70  64  82 S5        30.05S
MARSHALL       CLEAR     69  65  86 SW8       30.05S
REDWOOD FALLS  CLEAR     71  64  78 S6        30.05R
OLIVIA         CLEAR     72  64  78 S6        30.04S
PIPESTONE      CLEAR     66  63  88 S5        30.09S
WINDOM         CLEAR     72  66  83 S3        30.09S
WORTHINGTON    CLEAR     69  64  84 S6        30.11R
JACKSON        CLEAR     70  63  78 S5        30.11R
TRACY          CLEAR     73  67  79 SW9       30.07S
SLAYTON        CLEAR     66  63  91 S5        30.10S
$$
MNZ065>067-074>077-082>085-091>093-260600-
   South Central Minnesota

CITY           SKY/WX    TMP DP  RH WIND       PRES   REMARKS
MANKATO        CLEAR     73  64  73 S7        30.07R
NEW ULM        CLEAR     70  66  88 S6        30.06S
ST JAMES       CLEAR     64  63  94 CALM      30.08S
FAIRMONT       CLEAR     70  55  60 S6        30.08R
GLENCOE        CLEAR     73  68  83 CALM      30.05S
FARIBAULT      CLEAR     66  64  94 CALM      30.07S
OWATONNA       CLEAR     66  63  88 CALM      30.08R
WASECA         CLEAR     66  63  88 S3        30.09R
ALBERT LEA     CLEAR     70  68  94 CALM      30.09S
$$
MNZ078>079-086>088-094>096-260600-
   Southeast Minnesota

CITY           SKY/WX    TMP DP  RH WIND       PRES   REMARKS
ROCHESTER      CLEAR     67  65  93 SW6       30.09R
RED WING       CLEAR     68  66  94 CALM      30.04R
STANTON        CLEAR     68  64  88 S3        30.04S
DODGE CENTER   CLEAR     66  63  88 W3        30.09R
WINONA         PTCLDY    70  66  88 CALM      30.06R
AUSTIN         CLEAR     66  63  88 CALM      30.09S
PRESTON        CLEAR     67  64  87 SW6       30.09S
$$
ABBREVIATIONS USED IN REMARKS
   TC - TEMPERATURES IN CELSIUS
  WCI - WIND CHILL INDEX
   HX - HEAT INDEX
  VSB - VISIBILITY
$$




USA.gov is the U.S. government's official web portal to all federal, state and local government web resources and services.